Year,Month,Day,Hour,Minute,Value (Times are PST for windspeed in km/hr)
2008,10,09,00,00,0.00
2008,10,09,00,01,0.00
2008,10,09,00,02,0.00
2008,10,09,00,03,0.00
2008,10,09,00,04,0.00
2008,10,09,00,05,0.00
2008,10,09,00,06,0.00
2008,10,09,00,07,0.00
2008,10,09,00,08,0.00
2008,10,09,00,09,0.00
2008,10,09,00,10,1.20
2008,10,09,00,11,1.70
2008,10,09,00,12,1.20
2008,10,09,00,13,1.60
2008,10,09,00,14,1.30
2008,10,09,00,15,2.20
2008,10,09,00,16,0.60
2008,10,09,00,17,0.80
2008,10,09,00,18,0.30
2008,10,09,00,19,0.60
2008,10,09,00,20,1.80
2008,10,09,00,21,0.60
2008,10,09,00,22,1.70
2008,10,09,00,23,2.00
2008,10,09,00,24,1.30
2008,10,09,00,25,0.90
2008,10,09,00,26,1.00
2008,10,09,00,27,1.40
2008,10,09,00,28,1.60
2008,10,09,00,29,2.40
2008,10,09,00,30,3.00
2008,10,09,00,31,3.30
2008,10,09,00,32,2.20
2008,10,09,00,33,3.30
2008,10,09,00,34,4.50
2008,10,09,00,35,3.20
2008,10,09,00,36,2.30
2008,10,09,00,37,1.90
2008,10,09,00,38,1.40
2008,10,09,00,39,2.70
2008,10,09,00,40,3.20
2008,10,09,00,41,3.50
2008,10,09,00,42,2.60
2008,10,09,00,43,1.40
2008,10,09,00,44,2.10
2008,10,09,00,45,1.70
2008,10,09,00,46,1.80
2008,10,09,00,47,2.30
2008,10,09,00,48,3.80
2008,10,09,00,49,4.40
2008,10,09,00,50,3.70
2008,10,09,00,51,4.00
2008,10,09,00,52,4.00
2008,10,09,00,53,4.00
2008,10,09,00,54,3.50
2008,10,09,00,55,4.20
2008,10,09,00,56,3.80
2008,10,09,00,57,4.50
2008,10,09,00,58,3.10
2008,10,09,00,59,2.80
2008,10,09,01,00,3.10
2008,10,09,01,01,2.10
2008,10,09,01,02,1.40
2008,10,09,01,03,2.60
2008,10,09,01,04,1.90
2008,10,09,01,05,1.20
2008,10,09,01,06,4.30
2008,10,09,01,07,5.50
2008,10,09,01,08,6.20
2008,10,09,01,09,6.00
2008,10,09,01,10,4.60
2008,10,09,01,11,5.10
2008,10,09,01,12,4.00
2008,10,09,01,13,4.00
2008,10,09,01,14,3.50
2008,10,09,01,15,2.20
2008,10,09,01,16,1.40
2008,10,09,01,17,1.90
2008,10,09,01,18,3.90
2008,10,09,01,19,0.90
2008,10,09,01,20,2.90
2008,10,09,01,21,3.80
2008,10,09,01,22,2.70
2008,10,09,01,23,2.30
2008,10,09,01,24,3.70
2008,10,09,01,25,4.40
2008,10,09,01,26,3.90
2008,10,09,01,27,4.30
2008,10,09,01,28,4.20
2008,10,09,01,29,3.00
2008,10,09,01,30,3.60
2008,10,09,01,31,3.90
2008,10,09,01,32,2.70
2008,10,09,01,33,2.80
2008,10,09,01,34,3.90
2008,10,09,01,35,4.30
2008,10,09,01,36,4.70
2008,10,09,01,37,3.50
2008,10,09,01,38,3.00
2008,10,09,01,39,3.10
2008,10,09,01,40,2.90
2008,10,09,01,41,3.60
2008,10,09,01,42,3.80
2008,10,09,01,43,2.70
2008,10,09,01,44,3.50
2008,10,09,01,45,1.10
2008,10,09,01,46,3.00
2008,10,09,01,47,3.00
2008,10,09,01,48,3.00
2008,10,09,01,49,2.30
2008,10,09,01,50,4.20
2008,10,09,01,51,3.90
2008,10,09,01,52,3.00
2008,10,09,01,53,3.40
2008,10,09,01,54,2.80
2008,10,09,01,55,3.60
2008,10,09,01,56,2.70
2008,10,09,01,57,0.90
2008,10,09,01,58,2.30
2008,10,09,01,59,2.70
2008,10,09,02,00,3.30
2008,10,09,02,01,3.00
2008,10,09,02,02,2.10
2008,10,09,02,03,0.80
2008,10,09,02,04,0.90
2008,10,09,02,05,0.80
2008,10,09,02,06,1.00
2008,10,09,02,07,2.10
2008,10,09,02,08,0.20
2008,10,09,02,09,0.30
2008,10,09,02,10,0.80
2008,10,09,02,11,0.00
2008,10,09,02,12,0.00
2008,10,09,02,13,0.00
2008,10,09,02,14,0.00
2008,10,09,02,15,0.10
2008,10,09,02,16,0.00
2008,10,09,02,17,0.00
2008,10,09,02,18,0.00
2008,10,09,02,19,0.00
2008,10,09,02,20,0.00
2008,10,09,02,21,0.00
2008,10,09,02,22,0.00
2008,10,09,02,23,0.00
2008,10,09,02,24,0.00
2008,10,09,02,25,0.00
2008,10,09,02,26,0.00
2008,10,09,02,27,0.10
2008,10,09,02,28,0.10
2008,10,09,02,29,1.20
2008,10,09,02,30,2.50
2008,10,09,02,31,2.50
2008,10,09,02,32,1.80
2008,10,09,02,33,3.90
2008,10,09,02,34,2.30
2008,10,09,02,35,0.60
2008,10,09,02,36,2.00
2008,10,09,02,37,2.20
2008,10,09,02,38,1.70
2008,10,09,02,39,1.40
2008,10,09,02,40,1.50
2008,10,09,02,41,0.10
2008,10,09,02,42,0.30
2008,10,09,02,43,1.80
2008,10,09,02,44,3.60
2008,10,09,02,45,4.20
2008,10,09,02,46,4.10
2008,10,09,02,47,3.70
2008,10,09,02,48,3.90
2008,10,09,02,49,4.30
2008,10,09,02,50,4.30
2008,10,09,02,51,4.40
2008,10,09,02,52,3.80
2008,10,09,02,53,3.50
2008,10,09,02,54,2.70
2008,10,09,02,55,1.80
2008,10,09,02,56,1.90
2008,10,09,02,57,3.50
2008,10,09,02,58,1.60
2008,10,09,02,59,0.20
2008,10,09,03,00,2.40
2008,10,09,03,01,1.40
2008,10,09,03,02,2.60
2008,10,09,03,03,4.20
2008,10,09,03,04,3.00
2008,10,09,03,05,1.00
2008,10,09,03,06,3.40
2008,10,09,03,07,2.50
2008,10,09,03,08,2.00
2008,10,09,03,09,0.20
2008,10,09,03,10,0.60
2008,10,09,03,11,1.00
2008,10,09,03,12,0.40
2008,10,09,03,13,0.40
2008,10,09,03,14,0.10
2008,10,09,03,15,0.00
2008,10,09,03,16,0.00
2008,10,09,03,17,0.00
2008,10,09,03,18,0.00
2008,10,09,03,19,0.00
2008,10,09,03,20,0.00
2008,10,09,03,21,0.00
2008,10,09,03,22,0.00
2008,10,09,03,23,0.00
2008,10,09,03,24,0.00
2008,10,09,03,25,0.00
2008,10,09,03,26,0.00
2008,10,09,03,27,0.00
2008,10,09,03,28,0.00
2008,10,09,03,29,0.00
2008,10,09,03,30,0.00
2008,10,09,03,31,0.00
2008,10,09,03,32,0.00
2008,10,09,03,33,0.00
2008,10,09,03,34,0.00
2008,10,09,03,35,0.00
2008,10,09,03,36,0.00
2008,10,09,03,37,0.00
2008,10,09,03,38,0.00
2008,10,09,03,39,0.00
2008,10,09,03,40,0.00
2008,10,09,03,41,0.00
2008,10,09,03,42,0.00
2008,10,09,03,43,0.00
2008,10,09,03,44,0.00
2008,10,09,03,45,0.00
2008,10,09,03,46,0.00
2008,10,09,03,47,0.00
2008,10,09,03,48,0.00
2008,10,09,03,49,0.00
2008,10,09,03,50,0.00
2008,10,09,03,51,0.00
2008,10,09,03,52,0.00
2008,10,09,03,53,0.00
2008,10,09,03,54,0.00
2008,10,09,03,55,0.00
2008,10,09,03,56,0.00
2008,10,09,03,57,1.10
2008,10,09,03,58,0.20
2008,10,09,03,59,0.60
2008,10,09,04,00,2.40
2008,10,09,04,01,3.80
2008,10,09,04,02,5.10
2008,10,09,04,03,3.40
2008,10,09,04,04,3.90
2008,10,09,04,05,4.80
2008,10,09,04,06,3.60
2008,10,09,04,07,3.30
2008,10,09,04,08,4.20
2008,10,09,04,09,2.80
2008,10,09,04,10,1.80
2008,10,09,04,11,1.90
2008,10,09,04,12,2.70
2008,10,09,04,13,5.10
2008,10,09,04,14,3.80
2008,10,09,04,15,4.10
2008,10,09,04,16,5.20
2008,10,09,04,17,4.50
2008,10,09,04,18,4.10
2008,10,09,04,19,3.40
2008,10,09,04,20,3.90
2008,10,09,04,21,2.70
2008,10,09,04,22,1.10
2008,10,09,04,23,0.10
2008,10,09,04,24,0.70
2008,10,09,04,25,0.80
2008,10,09,04,26,1.20
2008,10,09,04,27,2.20
2008,10,09,04,28,1.10
2008,10,09,04,29,0.30
2008,10,09,04,30,0.20
2008,10,09,04,31,0.20
2008,10,09,04,32,0.80
2008,10,09,04,33,1.80
2008,10,09,04,34,0.80
2008,10,09,04,35,1.10
2008,10,09,04,36,0.80
2008,10,09,04,37,0.20
2008,10,09,04,38,0.10
2008,10,09,04,39,0.00
2008,10,09,04,40,0.10
2008,10,09,04,41,0.00
2008,10,09,04,42,0.00
2008,10,09,04,43,0.20
2008,10,09,04,44,0.10
2008,10,09,04,45,1.20
2008,10,09,04,46,0.00
2008,10,09,04,47,0.80
2008,10,09,04,48,1.50
2008,10,09,04,49,0.90
2008,10,09,04,50,0.40
2008,10,09,04,51,0.20
2008,10,09,04,52,0.20
2008,10,09,04,53,1.20
2008,10,09,04,54,0.50
2008,10,09,04,55,0.60
2008,10,09,04,56,0.50
2008,10,09,04,57,0.50
2008,10,09,04,58,0.10
2008,10,09,04,59,0.90
2008,10,09,05,00,0.20
2008,10,09,05,01,1.00
2008,10,09,05,02,1.20
2008,10,09,05,03,1.50
2008,10,09,05,04,0.40
2008,10,09,05,05,1.40
2008,10,09,05,06,0.20
2008,10,09,05,07,1.10
2008,10,09,05,08,0.00
2008,10,09,05,09,0.00
2008,10,09,05,10,0.00
2008,10,09,05,11,0.00
2008,10,09,05,12,0.00
2008,10,09,05,13,0.00
2008,10,09,05,14,0.00
2008,10,09,05,15,0.00
2008,10,09,05,16,0.00
2008,10,09,05,17,0.00
2008,10,09,05,18,0.00
2008,10,09,05,19,0.00
2008,10,09,05,20,0.00
2008,10,09,05,21,0.00
2008,10,09,05,22,0.90
2008,10,09,05,23,0.40
2008,10,09,05,24,0.40
2008,10,09,05,25,0.70
2008,10,09,05,26,0.70
2008,10,09,05,27,0.10
2008,10,09,05,28,0.00
2008,10,09,05,29,0.00
2008,10,09,05,30,0.00
2008,10,09,05,31,0.20
2008,10,09,05,32,0.80
2008,10,09,05,33,0.70
2008,10,09,05,34,0.50
2008,10,09,05,35,0.50
2008,10,09,05,36,0.10
2008,10,09,05,37,0.10
2008,10,09,05,38,0.00
2008,10,09,05,39,0.10
2008,10,09,05,40,0.00
2008,10,09,05,41,0.00
2008,10,09,05,42,0.00
2008,10,09,05,43,0.00
2008,10,09,05,44,0.00
2008,10,09,05,45,0.00
2008,10,09,05,46,0.00
2008,10,09,05,47,0.60
2008,10,09,05,48,0.30
2008,10,09,05,49,0.00
2008,10,09,05,50,0.20
2008,10,09,05,51,0.00
2008,10,09,05,52,0.00
2008,10,09,05,53,0.00
2008,10,09,05,54,0.00
2008,10,09,05,55,0.00
2008,10,09,05,56,0.00
2008,10,09,05,57,0.00
2008,10,09,05,58,0.20
2008,10,09,05,59,0.00
2008,10,09,06,00,0.00
2008,10,09,06,01,0.40
2008,10,09,06,02,0.20
2008,10,09,06,03,0.90
2008,10,09,06,04,0.90
2008,10,09,06,05,1.10
2008,10,09,06,06,0.00
2008,10,09,06,07,0.00
2008,10,09,06,08,0.00
2008,10,09,06,09,0.10
2008,10,09,06,10,0.10
2008,10,09,06,11,0.20
2008,10,09,06,12,0.20
2008,10,09,06,13,1.00
2008,10,09,06,14,0.70
2008,10,09,06,15,0.10
2008,10,09,06,16,0.00
2008,10,09,06,17,0.00
2008,10,09,06,18,0.00
2008,10,09,06,19,0.00
2008,10,09,06,20,0.00
2008,10,09,06,21,0.00
2008,10,09,06,22,0.00
2008,10,09,06,23,0.00
2008,10,09,06,24,0.00
2008,10,09,06,25,0.00
2008,10,09,06,26,0.00
2008,10,09,06,27,0.20
2008,10,09,06,28,0.00
2008,10,09,06,29,0.00
2008,10,09,06,30,0.00
2008,10,09,06,31,0.00
2008,10,09,06,32,0.00
2008,10,09,06,33,0.00
2008,10,09,06,34,0.00
2008,10,09,06,35,0.00
2008,10,09,06,36,0.00
2008,10,09,06,37,0.00
2008,10,09,06,38,0.00
2008,10,09,06,39,0.00
2008,10,09,06,40,0.00
2008,10,09,06,41,0.00
2008,10,09,06,42,0.00
2008,10,09,06,43,0.00
2008,10,09,06,44,0.00
2008,10,09,06,45,0.00
2008,10,09,06,46,0.00
2008,10,09,06,47,0.00
2008,10,09,06,48,0.00
2008,10,09,06,49,0.00
2008,10,09,06,50,0.00
2008,10,09,06,51,0.00
2008,10,09,06,52,0.00
2008,10,09,06,53,0.00
2008,10,09,06,54,0.00
2008,10,09,06,55,0.00
2008,10,09,06,56,0.00
2008,10,09,06,57,0.00
2008,10,09,06,58,0.00
2008,10,09,06,59,0.10
2008,10,09,07,00,0.10
2008,10,09,07,01,0.50
2008,10,09,07,02,0.90
2008,10,09,07,03,1.40
2008,10,09,07,04,1.20
2008,10,09,07,05,1.40
2008,10,09,07,06,0.80
2008,10,09,07,07,0.00
2008,10,09,07,08,0.00
2008,10,09,07,09,0.00
2008,10,09,07,10,0.00
2008,10,09,07,11,0.00
2008,10,09,07,12,0.00
2008,10,09,07,13,0.50
2008,10,09,07,14,0.00
2008,10,09,07,15,0.20
2008,10,09,07,16,0.20
2008,10,09,07,17,0.10
2008,10,09,07,18,0.00
2008,10,09,07,19,0.00
2008,10,09,07,20,0.30
2008,10,09,07,21,0.00
2008,10,09,07,22,0.00
2008,10,09,07,23,0.00
2008,10,09,07,24,0.00
2008,10,09,07,25,0.00
2008,10,09,07,26,0.00
2008,10,09,07,27,0.00
2008,10,09,07,28,0.00
2008,10,09,07,29,0.00
2008,10,09,07,30,0.00
2008,10,09,07,31,0.00
2008,10,09,07,32,0.00
2008,10,09,07,33,0.00
2008,10,09,07,34,0.00
2008,10,09,07,35,0.00
2008,10,09,07,36,0.10
2008,10,09,07,37,1.10
2008,10,09,07,38,1.40
2008,10,09,07,39,0.70
2008,10,09,07,40,1.10
2008,10,09,07,41,0.00
2008,10,09,07,42,0.00
2008,10,09,07,43,0.00
2008,10,09,07,44,0.00
2008,10,09,07,45,0.00
2008,10,09,07,46,0.00
2008,10,09,07,47,0.00
2008,10,09,07,48,0.00
2008,10,09,07,49,0.00
2008,10,09,07,50,0.00
2008,10,09,07,51,0.00
2008,10,09,07,52,1.90
2008,10,09,07,53,0.50
2008,10,09,07,54,1.80
2008,10,09,07,55,1.20
2008,10,09,07,56,0.00
2008,10,09,07,57,1.10
2008,10,09,07,58,2.50
2008,10,09,07,59,2.40
2008,10,09,08,00,2.50
2008,10,09,08,01,0.00
2008,10,09,08,02,0.40
2008,10,09,08,03,0.60
2008,10,09,08,04,0.00
2008,10,09,08,05,0.20
2008,10,09,08,06,4.20
2008,10,09,08,07,0.50
2008,10,09,08,08,0.90
2008,10,09,08,09,1.60
2008,10,09,08,10,0.60
2008,10,09,08,11,0.90
2008,10,09,08,12,0.40
2008,10,09,08,13,0.00
2008,10,09,08,14,0.00
2008,10,09,08,15,0.10
2008,10,09,08,16,0.00
2008,10,09,08,17,0.20
2008,10,09,08,18,0.60
2008,10,09,08,19,0.30
2008,10,09,08,20,0.10
2008,10,09,08,21,0.00
2008,10,09,08,22,0.30
2008,10,09,08,23,1.20
2008,10,09,08,24,0.20
2008,10,09,08,25,0.00
2008,10,09,08,26,0.90
2008,10,09,08,27,3.20
2008,10,09,08,28,1.40
2008,10,09,08,29,2.50
2008,10,09,08,30,2.80
2008,10,09,08,31,0.20
2008,10,09,08,32,0.60
2008,10,09,08,33,0.40
2008,10,09,08,34,1.50
2008,10,09,08,35,6.70
2008,10,09,08,36,2.80
2008,10,09,08,37,0.50
2008,10,09,08,38,1.50
2008,10,09,08,39,0.80
2008,10,09,08,40,2.90
2008,10,09,08,41,0.50
2008,10,09,08,42,0.90
2008,10,09,08,43,0.20
2008,10,09,08,44,0.00
2008,10,09,08,45,0.00
2008,10,09,08,46,0.70
2008,10,09,08,47,0.20
2008,10,09,08,48,6.60
2008,10,09,08,49,5.50
2008,10,09,08,50,1.00
2008,10,09,08,51,0.40
2008,10,09,08,52,1.90
2008,10,09,08,53,4.30
2008,10,09,08,54,1.90
2008,10,09,08,55,1.80
2008,10,09,08,56,1.10
2008,10,09,08,57,3.90
2008,10,09,08,58,3.40
2008,10,09,08,59,3.60
2008,10,09,09,00,4.80
2008,10,09,09,01,5.10
2008,10,09,09,02,2.10
2008,10,09,09,03,2.20
2008,10,09,09,04,6.10
2008,10,09,09,05,9.70
2008,10,09,09,06,5.60
2008,10,09,09,07,3.00
2008,10,09,09,08,10.00
2008,10,09,09,09,8.60
2008,10,09,09,10,5.10
2008,10,09,09,11,4.90
2008,10,09,09,12,7.60
2008,10,09,09,13,2.30
2008,10,09,09,14,4.00
2008,10,09,09,15,3.40
2008,10,09,09,16,5.30
2008,10,09,09,17,1.80
2008,10,09,09,18,6.50
2008,10,09,09,19,7.70
2008,10,09,09,20,6.30
2008,10,09,09,21,4.20
2008,10,09,09,22,5.20
2008,10,09,09,23,4.20
2008,10,09,09,24,6.90
2008,10,09,09,25,8.70
2008,10,09,09,26,12.50
2008,10,09,09,27,9.70
2008,10,09,09,28,9.90
2008,10,09,09,29,4.60
2008,10,09,09,30,5.60
2008,10,09,09,31,6.60
2008,10,09,09,32,6.60
2008,10,09,09,33,7.70
2008,10,09,09,34,8.50
2008,10,09,09,35,7.60
2008,10,09,09,36,7.90
2008,10,09,09,37,7.10
2008,10,09,09,38,4.60
2008,10,09,09,39,6.30
2008,10,09,09,40,9.30
2008,10,09,09,41,11.60
2008,10,09,09,42,7.50
2008,10,09,09,43,5.10
2008,10,09,09,44,4.80
2008,10,09,09,45,5.40
2008,10,09,09,46,5.00
2008,10,09,09,47,5.10
2008,10,09,09,48,3.70
2008,10,09,09,49,2.50
2008,10,09,09,50,8.00
2008,10,09,09,51,4.10
2008,10,09,09,52,5.90
2008,10,09,09,53,5.30
2008,10,09,09,54,3.00
2008,10,09,09,55,6.20
2008,10,09,09,56,2.80
2008,10,09,09,57,1.80
2008,10,09,09,58,3.10
2008,10,09,09,59,3.40
2008,10,09,10,00,2.20
2008,10,09,10,01,3.10
2008,10,09,10,02,2.10
2008,10,09,10,03,3.50
2008,10,09,10,04,2.80
2008,10,09,10,05,5.90
2008,10,09,10,06,2.70
2008,10,09,10,07,3.10
2008,10,09,10,08,6.80
2008,10,09,10,09,4.70
2008,10,09,10,10,4.60
2008,10,09,10,11,8.30
2008,10,09,10,12,4.70
2008,10,09,10,13,8.50
2008,10,09,10,14,7.00
2008,10,09,10,15,9.00
2008,10,09,10,16,6.40
2008,10,09,10,17,6.00
2008,10,09,10,18,6.40
2008,10,09,10,19,11.00
2008,10,09,10,20,9.20
2008,10,09,10,21,5.70
2008,10,09,10,22,5.80
2008,10,09,10,23,10.60
2008,10,09,10,24,8.00
2008,10,09,10,25,5.70
2008,10,09,10,26,5.60
2008,10,09,10,27,2.10
2008,10,09,10,28,3.60
2008,10,09,10,29,7.20
2008,10,09,10,30,6.70
2008,10,09,10,31,2.50
2008,10,09,10,32,11.40
2008,10,09,10,33,13.80
2008,10,09,10,34,8.00
2008,10,09,10,35,9.30
2008,10,09,10,36,7.00
2008,10,09,10,37,9.10
2008,10,09,10,38,6.50
2008,10,09,10,39,5.80
2008,10,09,10,40,4.40
2008,10,09,10,41,5.80
2008,10,09,10,42,3.90
2008,10,09,10,43,4.70
2008,10,09,10,44,4.90
2008,10,09,10,45,3.80
2008,10,09,10,46,4.20
2008,10,09,10,47,5.60
2008,10,09,10,48,4.20
2008,10,09,10,49,4.70
2008,10,09,10,50,4.60
2008,10,09,10,51,3.10
2008,10,09,10,52,4.70
2008,10,09,10,53,4.60
2008,10,09,10,54,3.60
2008,10,09,10,55,6.20
2008,10,09,10,56,4.70
2008,10,09,10,57,2.40
2008,10,09,10,58,4.50
2008,10,09,10,59,1.30
2008,10,09,11,00,1.40
2008,10,09,11,01,5.30
2008,10,09,11,02,2.70
2008,10,09,11,03,1.70
2008,10,09,11,04,3.00
2008,10,09,11,05,2.40
2008,10,09,11,06,1.00
2008,10,09,11,07,4.60
2008,10,09,11,08,3.70
2008,10,09,11,09,2.90
2008,10,09,11,10,6.70
2008,10,09,11,11,6.00
2008,10,09,11,12,4.00
2008,10,09,11,13,1.50
2008,10,09,11,14,2.40
2008,10,09,11,15,4.10
2008,10,09,11,16,3.00
2008,10,09,11,17,6.20
2008,10,09,11,18,10.90
2008,10,09,11,19,9.20
2008,10,09,11,20,5.60
2008,10,09,11,21,5.50
2008,10,09,11,22,5.80
2008,10,09,11,23,2.30
2008,10,09,11,24,1.90
2008,10,09,11,25,2.80
2008,10,09,11,26,3.90
2008,10,09,11,27,4.80
2008,10,09,11,28,2.70
2008,10,09,11,29,1.80
2008,10,09,11,30,2.80
2008,10,09,11,31,2.30
2008,10,09,11,32,3.30
2008,10,09,11,33,6.80
2008,10,09,11,34,4.30
2008,10,09,11,35,3.60
2008,10,09,11,36,5.10
2008,10,09,11,37,8.20
2008,10,09,11,38,3.20
2008,10,09,11,39,5.60
2008,10,09,11,40,5.30
2008,10,09,11,41,5.10
2008,10,09,11,42,5.60
2008,10,09,11,43,5.20
2008,10,09,11,44,6.90
2008,10,09,11,45,4.20
2008,10,09,11,46,2.00
2008,10,09,11,47,6.40
2008,10,09,11,48,3.60
2008,10,09,11,49,4.70
2008,10,09,11,50,4.20
2008,10,09,11,51,4.10
2008,10,09,11,52,5.30
2008,10,09,11,53,3.00
2008,10,09,11,54,3.00
2008,10,09,11,55,2.90
2008,10,09,11,56,3.90
2008,10,09,11,57,1.90
2008,10,09,11,58,0.70
2008,10,09,11,59,1.40
2008,10,09,12,00,5.30
2008,10,09,12,01,3.60
2008,10,09,12,02,5.80
2008,10,09,12,03,4.30
2008,10,09,12,04,5.20
2008,10,09,12,05,2.90
2008,10,09,12,06,2.40
2008,10,09,12,07,3.60
2008,10,09,12,08,3.70
2008,10,09,12,09,0.00
2008,10,09,12,10,5.80
2008,10,09,12,11,4.00
2008,10,09,12,12,2.90
2008,10,09,12,13,7.60
2008,10,09,12,14,5.20
2008,10,09,12,15,7.40
2008,10,09,12,16,5.20
2008,10,09,12,17,2.80
2008,10,09,12,18,4.70
2008,10,09,12,19,6.80
2008,10,09,12,20,2.20
2008,10,09,12,21,2.40
2008,10,09,12,22,2.50
2008,10,09,12,23,3.20
2008,10,09,12,24,2.90
2008,10,09,12,25,2.40
2008,10,09,12,26,2.80
2008,10,09,12,27,4.10
2008,10,09,12,28,1.00
2008,10,09,12,29,1.40
2008,10,09,12,30,1.30
2008,10,09,12,31,1.10
2008,10,09,12,32,5.20
2008,10,09,12,33,2.80
2008,10,09,12,34,2.00
2008,10,09,12,35,1.00
2008,10,09,12,36,2.50
2008,10,09,12,37,3.40
2008,10,09,12,38,3.50
2008,10,09,12,39,4.60
2008,10,09,12,40,3.40
2008,10,09,12,41,1.20
2008,10,09,12,42,4.30
2008,10,09,12,43,2.80
2008,10,09,12,44,2.40
2008,10,09,12,45,0.90
2008,10,09,12,46,1.00
2008,10,09,12,47,1.30
2008,10,09,12,48,2.00
2008,10,09,12,49,5.10
2008,10,09,12,50,1.50
2008,10,09,12,51,0.00
2008,10,09,12,52,0.40
2008,10,09,12,53,0.00
2008,10,09,12,54,0.20
2008,10,09,12,55,0.20
2008,10,09,12,56,4.70
2008,10,09,12,57,1.30
2008,10,09,12,58,1.10
2008,10,09,12,59,1.70
2008,10,09,13,00,7.30
2008,10,09,13,01,4.70
2008,10,09,13,02,2.90
2008,10,09,13,03,2.10
2008,10,09,13,04,6.10
2008,10,09,13,05,4.00
2008,10,09,13,06,4.00
2008,10,09,13,07,6.80
2008,10,09,13,08,7.60
2008,10,09,13,09,10.10
2008,10,09,13,10,6.40
2008,10,09,13,11,2.80
2008,10,09,13,12,3.90
2008,10,09,13,13,3.80
2008,10,09,13,14,1.70
2008,10,09,13,15,6.70
2008,10,09,13,16,5.10
2008,10,09,13,17,1.80
2008,10,09,13,18,1.30
2008,10,09,13,19,3.00
2008,10,09,13,20,6.00
2008,10,09,13,21,3.60
2008,10,09,13,22,2.60
2008,10,09,13,23,2.20
2008,10,09,13,24,2.50
2008,10,09,13,25,4.40
2008,10,09,13,26,1.20
2008,10,09,13,27,4.70
2008,10,09,13,28,3.90
2008,10,09,13,29,1.40
2008,10,09,13,30,1.40
2008,10,09,13,31,5.70
2008,10,09,13,32,4.70
2008,10,09,13,33,1.00
2008,10,09,13,34,2.20
2008,10,09,13,35,6.20
2008,10,09,13,36,1.80
2008,10,09,13,37,5.10
2008,10,09,13,38,1.70
2008,10,09,13,39,2.40
2008,10,09,13,40,4.60
2008,10,09,13,41,3.00
2008,10,09,13,42,1.00
2008,10,09,13,43,0.00
2008,10,09,13,44,0.10
2008,10,09,13,45,0.00
2008,10,09,13,46,1.00
2008,10,09,13,47,3.40
2008,10,09,13,48,2.20
2008,10,09,13,49,0.40
2008,10,09,13,50,0.00
2008,10,09,13,51,0.00
2008,10,09,13,52,0.20
2008,10,09,13,53,0.00
2008,10,09,13,54,0.20
2008,10,09,13,55,0.30
2008,10,09,13,56,0.90
2008,10,09,13,57,0.30
2008,10,09,13,58,0.20
2008,10,09,13,59,0.10
2008,10,09,14,00,0.80
2008,10,09,14,01,4.90
2008,10,09,14,02,4.50
2008,10,09,14,03,3.20
2008,10,09,14,04,1.80
2008,10,09,14,05,2.30
2008,10,09,14,06,4.70
2008,10,09,14,07,4.40
2008,10,09,14,08,2.60
2008,10,09,14,09,1.40
2008,10,09,14,10,0.60
2008,10,09,14,11,2.90
2008,10,09,14,12,5.30
2008,10,09,14,13,3.70
2008,10,09,14,14,3.60
2008,10,09,14,15,3.50
2008,10,09,14,16,1.10
2008,10,09,14,17,1.80
2008,10,09,14,18,2.80
2008,10,09,14,19,0.80
2008,10,09,14,20,5.50
2008,10,09,14,21,4.80
2008,10,09,14,22,1.80
2008,10,09,14,23,2.20
2008,10,09,14,24,4.10
2008,10,09,14,25,9.40
2008,10,09,14,26,5.30
2008,10,09,14,27,3.90
2008,10,09,14,28,5.30
2008,10,09,14,29,8.10
2008,10,09,14,30,3.60
2008,10,09,14,31,5.30
2008,10,09,14,32,4.40
2008,10,09,14,33,1.90
2008,10,09,14,34,2.70
2008,10,09,14,35,2.80
2008,10,09,14,36,3.30
2008,10,09,14,37,7.20
2008,10,09,14,38,3.40
2008,10,09,14,39,1.90
2008,10,09,14,40,4.10
2008,10,09,14,41,6.00
2008,10,09,14,42,4.60
2008,10,09,14,43,3.60
2008,10,09,14,44,7.70
2008,10,09,14,45,4.80
2008,10,09,14,46,4.90
2008,10,09,14,47,3.30
2008,10,09,14,48,3.70
2008,10,09,14,49,6.10
2008,10,09,14,50,6.60
2008,10,09,14,51,5.30
2008,10,09,14,52,3.10
2008,10,09,14,53,4.40
2008,10,09,14,54,6.10
2008,10,09,14,55,4.10
2008,10,09,14,56,7.70
2008,10,09,14,57,5.10
2008,10,09,14,58,5.80
2008,10,09,14,59,6.20
2008,10,09,15,00,5.80
2008,10,09,15,01,2.90
2008,10,09,15,02,1.90
2008,10,09,15,03,6.10
2008,10,09,15,04,7.80
2008,10,09,15,05,8.50
2008,10,09,15,06,6.50
2008,10,09,15,07,4.30
2008,10,09,15,08,4.70
2008,10,09,15,09,9.50
2008,10,09,15,10,10.60
2008,10,09,15,11,5.60
2008,10,09,15,12,6.00
2008,10,09,15,13,12.60
2008,10,09,15,14,10.30
2008,10,09,15,15,13.50
2008,10,09,15,16,5.50
2008,10,09,15,17,7.70
2008,10,09,15,18,8.60
2008,10,09,15,19,10.30
2008,10,09,15,20,15.80
2008,10,09,15,21,6.30
2008,10,09,15,22,10.40
2008,10,09,15,23,6.80
2008,10,09,15,24,6.30
2008,10,09,15,25,11.00
2008,10,09,15,26,8.10
2008,10,09,15,27,10.40
2008,10,09,15,28,7.30
2008,10,09,15,29,7.20
2008,10,09,15,30,8.50
2008,10,09,15,31,5.10
2008,10,09,15,32,7.80
2008,10,09,15,33,10.30
2008,10,09,15,34,2.50
2008,10,09,15,35,9.20
2008,10,09,15,36,5.50
2008,10,09,15,37,8.00
2008,10,09,15,38,5.00
2008,10,09,15,39,7.00
2008,10,09,15,40,5.80
2008,10,09,15,41,4.40
2008,10,09,15,42,4.10
2008,10,09,15,43,7.40
2008,10,09,15,44,5.60
2008,10,09,15,45,4.30
2008,10,09,15,46,1.40
2008,10,09,15,47,7.40
2008,10,09,15,48,9.30
2008,10,09,15,49,8.20
2008,10,09,15,50,1.50
2008,10,09,15,51,2.20
2008,10,09,15,52,2.50
2008,10,09,15,53,3.90
2008,10,09,15,54,3.80
2008,10,09,15,55,3.10
2008,10,09,15,56,3.40
2008,10,09,15,57,2.10
2008,10,09,15,58,3.90
2008,10,09,15,59,2.80
2008,10,09,16,00,2.70
2008,10,09,16,01,1.80
2008,10,09,16,02,2.80
2008,10,09,16,03,6.00
2008,10,09,16,04,3.60
2008,10,09,16,05,4.20
2008,10,09,16,06,3.90
2008,10,09,16,07,4.10
2008,10,09,16,08,1.50
2008,10,09,16,09,1.50
2008,10,09,16,10,0.50
2008,10,09,16,11,2.10
2008,10,09,16,12,5.20
2008,10,09,16,13,2.80
2008,10,09,16,14,4.80
2008,10,09,16,15,0.90
2008,10,09,16,16,3.00
2008,10,09,16,17,4.40
2008,10,09,16,18,1.80
2008,10,09,16,19,2.10
2008,10,09,16,20,2.50
2008,10,09,16,21,1.80
2008,10,09,16,22,0.20
2008,10,09,16,23,2.30
2008,10,09,16,24,0.60
2008,10,09,16,25,0.20
2008,10,09,16,26,0.00
2008,10,09,16,27,0.30
2008,10,09,16,28,0.00
2008,10,09,16,29,2.70
2008,10,09,16,30,0.60
2008,10,09,16,31,3.40
2008,10,09,16,32,0.80
2008,10,09,16,33,1.00
2008,10,09,16,34,1.40
2008,10,09,16,35,3.40
2008,10,09,16,36,4.70
2008,10,09,16,37,1.50
2008,10,09,16,38,1.90
2008,10,09,16,39,2.30
2008,10,09,16,40,0.40
2008,10,09,16,41,2.20
2008,10,09,16,42,1.60
2008,10,09,16,43,4.40
2008,10,09,16,44,1.10
2008,10,09,16,45,1.70
2008,10,09,16,46,0.10
2008,10,09,16,47,1.40
2008,10,09,16,48,3.40
2008,10,09,16,49,5.40
2008,10,09,16,50,1.70
2008,10,09,16,51,0.00
2008,10,09,16,52,3.10
2008,10,09,16,53,0.30
2008,10,09,16,54,0.20
2008,10,09,16,55,1.10
2008,10,09,16,56,2.70
2008,10,09,16,57,1.80
2008,10,09,16,58,1.30
2008,10,09,16,59,2.50
2008,10,09,17,00,1.20
2008,10,09,17,01,4.80
2008,10,09,17,02,3.40
2008,10,09,17,03,3.80
2008,10,09,17,04,4.40
2008,10,09,17,05,4.60
2008,10,09,17,06,1.50
2008,10,09,17,07,0.80
2008,10,09,17,08,0.80
2008,10,09,17,09,1.30
2008,10,09,17,10,5.10
2008,10,09,17,11,3.20
2008,10,09,17,12,1.40
2008,10,09,17,13,3.00
2008,10,09,17,14,4.70
2008,10,09,17,15,4.30
2008,10,09,17,16,5.40
2008,10,09,17,17,5.40
2008,10,09,17,18,1.70
2008,10,09,17,19,0.70
2008,10,09,17,20,2.20
2008,10,09,17,21,0.70
2008,10,09,17,22,2.90
2008,10,09,17,23,3.40
2008,10,09,17,24,1.00
2008,10,09,17,25,0.70
2008,10,09,17,26,1.10
2008,10,09,17,27,1.30
2008,10,09,17,28,4.90
2008,10,09,17,29,0.00
2008,10,09,17,30,0.00
2008,10,09,17,31,1.10
2008,10,09,17,32,2.50
2008,10,09,17,33,1.60
2008,10,09,17,34,1.00
2008,10,09,17,35,0.00
2008,10,09,17,36,2.10
2008,10,09,17,37,1.80
2008,10,09,17,38,3.30
2008,10,09,17,39,0.60
2008,10,09,17,40,0.50
2008,10,09,17,41,1.40
2008,10,09,17,42,4.70
2008,10,09,17,43,1.50
2008,10,09,17,44,1.80
2008,10,09,17,45,1.40
2008,10,09,17,46,1.60
2008,10,09,17,47,1.70
2008,10,09,17,48,3.00
2008,10,09,17,49,4.70
2008,10,09,17,50,2.30
2008,10,09,17,51,0.20
2008,10,09,17,52,1.80
2008,10,09,17,53,4.50
2008,10,09,17,54,3.50
2008,10,09,17,55,4.30
2008,10,09,17,56,1.90
2008,10,09,17,57,3.60
2008,10,09,17,58,3.20
2008,10,09,17,59,6.60
2008,10,09,18,00,4.20
2008,10,09,18,01,2.20
2008,10,09,18,02,3.10
2008,10,09,18,03,3.40
2008,10,09,18,04,1.50
2008,10,09,18,05,4.90